Regional Weather Roundup
Issued by NWS

Home | Current Version | Previous Version | Graphics & Text | Print | Product List | Glossary On
Versions: 1 2 3 4 5 6 7 8 9 10 11 12 13 14 15 16 17 18 19 20 21 22 23 24 25 26 27 28 29 30 31 32 33 34 35 36 37 38 39 40 41 42 43 44 45 46
000
ASUS45 KTFX 071610
RWRMT
MONTANA REGIONAL WEATHER ROUNDUP
NATIONAL WEATHER SERVICE GREAT FALLS MT
900 AM MST SUN FEB 07 2016

NOTE: "FAIR" INDICATES FEW OR NO CLOUDS BELOW 12000 FEET WITH NO
SIGNIFICANT WEATHER AND/OR OBSTRUCTIONS TO VISIBILITY.

MTZ001>007-043-071700-
WEST OF THE DIVIDE

CITY           SKY/WX    TMP DP  RH WIND       PRES   REMARKS
KALISPELL      CLEAR     12  11  95 CALM      30.55R
MISSOULA       CLEAR     21  17  84 CALM      30.59R
BUTTE          CLOUDY     4   1  88 S3        30.48R
MULLAN PASS    CLOUDY    22  16  78 SW7       30.44R WCI  13
ANACONDA         N/A     19  12  73 S3        30.50R
DEER LODGE       N/A     19  12  73 CALM      30.53R
HAMILTON         N/A     25  18  74 CALM      30.56R
LIBBY            N/A     16  12  86 CALM      30.58R
PLAINS           N/A     26  21  81 CALM      30.56R
THOMPSON FALLS   N/A     22  19  88 CALM      30.59R
$$

MTZ008-052>055-071700-
SOUTHWEST MONTANA

CITY           SKY/WX    TMP DP  RH WIND       PRES   REMARKS
BOZEMAN        CLOUDY    15   9  76 S10       30.49R WCI   2
DILLON         CLOUDY    25  12  58 S9        30.46R WCI  15
ENNIS          SUNNY     21  12  68 NE5       30.51R
TWIN BRIDGES     N/A     20   7  57 S3        30.40R
$$

MTZ009-010-012-014-046-048-049-054-071700-
EAST SLOPES AND CENTRAL MONTANA

CITY           SKY/WX    TMP DP  RH WIND       PRES   REMARKS
CUT BANK       PTCLDY    23  13  65 W10       30.43R WCI  12
GREAT FALLS    CLOUDY    26  17  68 SW9       30.45R WCI  17
MALMSTROM AFB  CLOUDY    26  19  76 SW8       30.46R WCI  17
HELENA         CLOUDY    32  17  54 W7        30.49R WCI  26
CHOTEAU          N/A     30  12  47 W6        30.46R WCI  24
CONRAD           N/A     31  16  54 SW14      30.40R WCI  21
$$

MTZ011-013-016-021-045-047-050-051-071700-
NORTH CENTRAL MONTANA

CITY           SKY/WX    TMP DP  RH WIND       PRES   REMARKS
HAVRE          SUNNY     29  17  61 W8        30.42R WCI  21
LEWISTOWN      SUNNY     28  14  55 N5        30.40R
N BAR RANCH      N/A     28  12  50 NW16G23   30.39R WCI  17
CHINOOK          N/A     30  14  51 W10G17    30.40R WCI  21
$$

MTZ017>020-022>027-061-062-071700-
NORTHEAST MONTANA

CITY           SKY/WX    TMP DP  RH WIND       PRES   REMARKS
GLASGOW        SUNNY     29  18  63 NW25G33   30.26R WCI  14
JORDAN           N/A     31  18  58 NW23G35   30.32R WCI  18
SIDNEY         SUNNY     34  18  51 NW37G44   30.12R WCI  19
WOLF POINT     SUNNY     34  19  54 NW26G36   30.24R WCI  21
PLENTYWOOD       N/A     28  19  69 NW35G45   30.04R WCI  12
POPLAR           N/A     32  19  59 NW20G29   30.22R WCI  20
$$

MTZ028>42-056>058-071700-
SOUTHCENTRAL AND SOUTHEAST MONTANA

CITY           SKY/WX    TMP DP  RH WIND       PRES   REMARKS
BAKER          SUNNY     32  13  45 NW43G60   30.13R WCI  15
BILLINGS       MOSUNNY   32  15  49 NW16      30.41R WCI  21
LIVINGSTON     CLOUDY    31  14  49 W17G24    30.43R WCI  19
MILES CITY     SUNNY     34  14  43 NW30G40   30.27R WCI  20
FORSYTH          N/A     34  14  44 W15G23    30.35R WCI  24
LAUREL           N/A     32  12  43 W8        30.36R WCI  25
ROUNDUP          N/A     34   9  35 W15       30.27R WCI  24
$$

REGIONAL REPORTS...DAKOTAS

CITY           SKY/WX    TMP DP  RH WIND       PRES   REMARKS
WILLISTON      PTSUNNY   31  20  63 NW30G49   30.06R WCI  16
MINOT          FLURRIES  29  16  58 NW29G43   29.86R WCI  14
DICKINSON      LGT SNOW  28  21  75 NW32G41   29.98R WCI  12
BEACH          PTSUNNY   32  16  51 NW33G49   30.13R WCI  17
CROSBY         CLOUDY    27  21  80 NW35G47   30.03R WCI   9
TIOGA          FLURRIES  27  23  86 NW40G53   30.01R WCI   8
BISMARCK       CLOUDY    34  21  59 NW32G60   29.85R WCI  20
GRAND FORKS    LGT SNOW  32  28  85 N21       29.60R VSB 3/4 WCI  20
FARGO          LGT SNOW  36  30  79 W22       29.61R WCI  25
BUFFALO SD       N/A     35  13  40 NW52G64   29.99R WCI  18
RAPID CITY     SUNNY     36  10  34 NW45G60   30.11S WCI  21
$$

REGIONAL REPORTS...WYOMING/IDAHO/WASHINGTON

CITY           SKY/WX    TMP DP  RH WIND       PRES   REMARKS
GILLETTE       SUNNY     30  13  49 NW25G33   30.28R WCI  16
SHERIDAN       CLOUDY    32  17  54 NW21G30   30.37R WCI  20
BUFFALO WY     FLURRIES  30  12  47 NW29G41   30.31R WCI  15
CODY           SUNNY     27  18  69 N3        30.38R
YELLOWSTONE LA   N/A      7   3  84 CALM      30.43R
IDAHO FALLS    CLOUDY    21  18  88 CALM      30.55S FOG
SALMON         CLOUDY    12   9  85 CALM      30.59R
BOISE          PTCLDY    30  28  92 CALM      30.60R FOG
SPOKANE        FOG       26  25  96 E3        30.56R VSB 1/4
$$

REGIONAL REPORTS...ALBERTA

CITY           SKY/WX    TMP DP  RH WIND       PRES   REMARKS
EDMONTON       CLEAR     27  14  59 W12       30.32R WCI  16
CALGARY        PTCLDY    30   3  31 W14       30.37R WCI  20
LETHBRIDGE     PTCLDY    30  14  51 W14G23    30.42R WCI  20
MEDICINE HAT   PTCLDY    30  12  47 W18       30.40R WCI  18
WATERTON GATE    N/A     30  10  43 SW17G29     N/A  WCI  18
MILK RIVER       N/A     27  14  59 W14         N/A  WCI  15
ONEFOUR          N/A     25  18  74 NW13        N/A  WCI  13
$$

REGIONAL REPORTS...SASKATCHEWAN

CITY           SKY/WX    TMP DP  RH WIND       PRES   REMARKS
SWIFT CURRENT  SUNNY     25  18  74 W22G30    30.21R WCI  10
REGINA         PTSUNNY   25  19  80 NW32G41   30.07R WCI   7
SASKATOON      PTCLDY    23  18  80 NW17      30.16R WCI   9
CYPRESS HILLS    N/A     23  10  58 NW14G21     N/A  WCI  11
VAL MARIE        N/A     30  16  55 NW24        N/A  WCI  16
ASSINIBOIA       N/A     25  16  68 W14G20      N/A  WCI  13
$$



USA.gov is the U.S. government's official web portal to all federal, state and local government web resources and services.